TimeCST,TemperatureF,Dew PointF,Humidity,Sea Level PressureIn,VisibilityMPH,Wind Direction,Wind SpeedMPH,Gust SpeedMPH,PrecipitationIn,Events,Conditions,WindDirDegrees,DateUTC
12:21 AM,66.2,66.2,100,29.53,7.0,SE,13.8,24.2,N/A,Rain,Rain,140,2013-02-26 06:21:00
12:56 AM,66.2,66.2,100,29.54,2.5,South,16.1,-,N/A,Rain,Heavy Rain,180,2013-02-26 06:56:00
12:58 AM,66.2,66.2,100,29.54,2.5,South,16.1,-,0.35,Rain,Heavy Rain,180,2013-02-26 06:58:00
1:03 AM,66.2,66.2,100,29.54,3.0,South,12.7,-,N/A,Rain,Heavy Rain,180,2013-02-26 07:03:00
1:28 AM,66.2,66.2,100,29.53,5.0,SSW,8.1,-,N/A,Rain,Rain,200,2013-02-26 07:28:00
1:35 AM,66.2,66.2,100,29.54,10.0,SSW,8.1,-,N/A,,Mostly Cloudy,210,2013-02-26 07:35:00
1:40 AM,66.2,66.2,100,29.54,10.0,SSW,6.9,-,N/A,,Mostly Cloudy,210,2013-02-26 07:40:00
1:55 AM,66.2,66.2,100,29.54,10.0,SW,5.8,-,N/A,,Mostly Cloudy,230,2013-02-26 07:55:00
1:58 AM,66.2,66.0,99,29.54,10.0,SW,4.6,-,0.20,,Mostly Cloudy,220,2013-02-26 07:58:00
2:33 AM,66.2,66.2,100,29.52,10.0,SSW,8.1,-,N/A,,Mostly Cloudy,210,2013-02-26 08:33:00
2:43 AM,66.2,66.2,100,29.53,10.0,WSW,10.4,-,N/A,,Scattered Clouds,240,2013-02-26 08:43:00
2:55 AM,66.2,64.4,94,29.53,10.0,WSW,15.0,19.6,N/A,,Mostly Cloudy,240,2013-02-26 08:55:00
2:58 AM,66.0,65.1,97,29.53,10.0,WSW,12.7,19.6,N/A,,Mostly Cloudy,250,2013-02-26 08:58:00
3:58 AM,62.4,56.3,80,29.56,10.0,WSW,8.1,-,N/A,,Mostly Cloudy,240,2013-02-26 09:58:00
4:58 AM,59.7,52.5,77,29.59,10.0,WSW,8.1,-,N/A,,Mostly Cloudy,240,2013-02-26 10:58:00
5:58 AM,57.6,48.9,73,29.60,10.0,SW,10.4,-,N/A,,Clear,220,2013-02-26 11:58:00
6:58 AM,56.7,47.3,71,29.64,10.0,SW,11.5,-,N/A,,Clear,230,2013-02-26 12:58:00
7:58 AM,58.1,46.0,64,29.67,10.0,SW,15.0,18.4,N/A,,Clear,230,2013-02-26 13:58:00
8:55 AM,57.9,44.6,61,29.70,10.0,WSW,8.1,-,N/A,,Mostly Cloudy,250,2013-02-26 14:55:00
9:55 AM,59.9,43.0,54,29.71,10.0,SW,20.7,26.5,N/A,,Mostly Cloudy,230,2013-02-26 15:55:00
10:55 AM,60.6,44.4,55,29.72,10.0,SW,15.0,23.0,N/A,,Partly Cloudy,230,2013-02-26 16:55:00
11:56 AM,61.5,44.2,53,29.72,10.0,SW,15.0,21.9,N/A,,Partly Cloudy,220,2013-02-26 17:56:00
12:55 PM,61.0,42.3,50,29.72,10.0,WSW,19.6,24.2,N/A,,Partly Cloudy,240,2013-02-26 18:55:00
1:55 PM,61.2,41.7,49,29.72,10.0,WSW,13.8,23.0,N/A,,Partly Cloudy,250,2013-02-26 19:55:00
2:55 PM,61.0,41.9,49,29.71,10.0,SW,12.7,-,N/A,,Mostly Cloudy,230,2013-02-26 20:55:00
3:55 PM,57.0,43.9,61,29.74,10.0,WSW,16.1,-,N/A,,Mostly Cloudy,240,2013-02-26 21:55:00
4:55 PM,55.4,43.5,64,29.76,10.0,SW,11.5,-,N/A,,Mostly Cloudy,230,2013-02-26 22:55:00
5:55 PM,54.0,43.3,67,29.79,10.0,WSW,8.1,-,N/A,,Mostly Cloudy,240,2013-02-26 23:55:00
6:55 PM,53.2,42.8,68,29.81,10.0,WSW,8.1,-,N/A,,Mostly Cloudy,240,2013-02-27 00:55:00
7:55 PM,52.5,42.8,70,29.85,10.0,WSW,5.8,-,N/A,,Mostly Cloudy,250,2013-02-27 01:55:00
8:55 PM,52.2,42.6,70,29.88,10.0,WSW,6.9,-,N/A,,Mostly Cloudy,250,2013-02-27 02:55:00
9:55 PM,51.8,42.6,71,29.90,10.0,West,5.8,-,N/A,,Mostly Cloudy,260,2013-02-27 03:55:00
10:55 PM,51.3,42.8,73,29.91,10.0,WNW,5.8,-,N/A,,Mostly Cloudy,290,2013-02-27 04:55:00
11:55 PM,50.5,42.6,74,29.91,10.0,WNW,6.9,-,N/A,,Mostly Cloudy,300,2013-02-27 05:55:00